Regional Weather Roundup
Issued by NWS Boston, MA

Home | Current Version | Previous Version | Text Only | Print | Product List | Glossary On
Versions: 1 2 3 4 5 6 7 8 9 10 11 12 13 14 15 16 17 18 19 20 21 22 23 24 25 26 27 28 29 30 31 32 33 34 35 36 37 38 39 40 41 42 43 44 45 46 47 48 49 50
612
ASUS41 KBOX 230810
RWRBOX

REGIONAL WEATHER ROUNDUP
NATIONAL WEATHER SERVICE TAUNTON MA
400 AM EDT THU MAR 23 2017

NOTE:  "FAIR" INDICATES FEW OR NO CLOUDS BELOW 12,000 FEET WITH NO
SIGNIFICANT WEATHER AND/OR OBSTRUCTIONS TO VISIBILITY.

MAZALL-230900-
EASTERN MASSACHUSETTS

CITY           SKY/WX    TMP DP  RH WIND       PRES   REMARKS
BOSTON         CLEAR     19  -4  36 NW17G26   30.38R WCI   4
BEVERLY        CLEAR     17  -3  41 NW13G21   30.35R WCI   4
LAWRENCE       CLEAR     16  -4  41 NW8       30.37S WCI   5
BEDFORD        CLEAR     17  -6  35 W14       30.36S WCI   3
BLUE HILL        N/A     14  -5  42 NW17G24   30.31R WCI  -3
NORWOOD        CLEAR     19  -4  36 NW8G18    30.38S WCI   9
MARSHFIELD     CLEAR     19  -4  35 NW10G17   30.36S WCI   8
PLYMOUTH       CLEAR     17  -5  37 NW10G21   30.36R WCI   5
TAUNTON        CLEAR     18  -6  34 NW7G18    30.37S WCI   9
NEW BEDFORD    CLEAR     18  -5  36 NW8       30.37R WCI   8
$$

MAZALL-230900-
CAPE COD AND THE ISLANDS

CITY           SKY/WX    TMP DP  RH WIND       PRES   REMARKS
FALMOUTH         N/A    N/A N/A N/A MISG        N/A
HYANNIS        CLEAR     20   2  45 NW17G26   30.31S WCI   5
CHATHAM        CLEAR     21   4  47 NW12G24   30.32S WCI   9
PROVINCETOWN   CLEAR     21   6  52 NW26G37   30.34R WCI   4
NANTUCKET      CLEAR     20   0  41 NW22G35   30.33R WCI   3
MARTHAS VNYRD  CLEAR     19  -4  36 NW20G29   30.36R WCI   3
$$

MAZALL-230900-
CENTRAL AND WESTERN MASSACHUSETTS

CITY           SKY/WX    TMP DP  RH WIND       PRES   REMARKS
WORCESTER      CLEAR     13  -9  37 NW12      30.30S WCI  -1
FITCHBURG      CLEAR     16  -4  41 NW8       30.37S WCI   5
ORANGE         CLEAR     14  -5  42 N3        30.37R
SPRINGFIELD    PTCLDY    17  -7  34 CALM      30.39S
WESTFIELD      PTCLDY    17  -4  39 W3        30.40S
NORTH ADAMS    PTCLDY    14  -5  42 W12       30.40S WCI   0
PITTSFIELD     CLEAR     13  -6  42 NW8       30.34S WCI   2
$$

RIZALL-230900-
RHODE ISLAND

CITY           SKY/WX    TMP DP  RH WIND       PRES   REMARKS
PROVIDENCE     PTCLDY    19  -7  31 N9        30.40S WCI   8
NEWPORT        CLEAR     19  -3  38 NW13G25   30.39R WCI   6
BLOCK ISLAND   CLEAR     20  -1  40 N15G21    30.42R WCI   6
SMITHFIELD     CLEAR     16  -3  43 NW13G21   30.36S WCI   2
WESTERLY       CLEAR     20  -6  31 VRB6      30.42R WCI  12
$$

CTZALL-230900-
CONNECTICUT

CITY           SKY/WX    TMP DP  RH WIND       PRES   REMARKS
BRADLEY INTL   PTCLDY    17  -5  37 NW7       30.42S WCI   8
HARTFORD       PTCLDY    20  -4  34 NW7       30.44S WCI  11
BRIDGEPORT     CLEAR     23   1  38 NW8       30.47R WCI  14
DANBURY        CLEAR     15   3  59 CALM      30.44S
GROTON         CLEAR     19  -4  36 NW9       30.43R WCI   8
NEW HAVEN      CLEAR     21  -1  38 NW6       30.45R WCI  13
CHESTER        FAIR      19  -8  30 N9        30.41R WCI   9
MERIDEN        PTCLDY    21  -4  33 NW8       30.44R WCI  11
WILLIMANTIC    CLEAR     19  -3  38 CALM      30.42S
OXFORD         CLEAR     18  -4  38 CALM      30.40S
$$

MEZ002-015-021-024-NHZ003-005-008-011-012-014-VTZ005-008-230900-
NORTHERN NEW ENGLAND

CITY           SKY/WX    TMP DP  RH WIND       PRES   REMARKS
PORTLAND ME    CLEAR     15  -5  40 NW16G23   30.30R WCI  -1
BANGOR ME      CLEAR     11  -6  46 NW13      30.21R WCI  -4
CONCORD NH     CLEAR     15  -3  44 NW14      30.34S WCI   0
MANCHESTER NH  CLEAR     17  -6  35 NW14G24   30.34S WCI   3
NASHUA NH      CLEAR     17  -3  41 NW10G18   30.36F WCI   5
PORTSMOUTH NH  CLEAR     16  -6  38 NW9       30.32R WCI   4
JAFFREY NH     CLEAR     14  -8  37 VRB7      30.31S WCI   4
KEENE NH       CLEAR     13  -3  49 VRB3      30.38S
BURLINGTON VT  CLEAR      6  -2  69 CALM      30.45R
MT. WASHINGTON ICE FOG  -17 -17 100 NW60G71     N/A  VSB 1/8 WCI -57
$$

NYZ052-076-230900-
EASTERN NEW YORK

CITY           SKY/WX    TMP DP  RH WIND       PRES   REMARKS
ALBANY         CLEAR     15  -1  49 W7        30.47S WCI   5
NEW YORK CITY  CLEAR     26   6  42 NW9       30.48S WCI  17
$$

ANZALL-230900-
MARINE OBSERVATIONS

STATION/POSITION TIME  TEMP    WIND        PRES    VSBY  WAVE
                       AIR SEA DIR/SP/G                  HT/PER
                 (UTC) (F)     (DEG/KT/KT) (MB)    (MI)  (FT/S)
BOSTON BUOY      0650   22 40  320/ 25/ 31 1027.0          5/ 4
BUZZARDS BAY     0700   20     340/ 23/ 25 1029.0R
NANTUCKET SOUND  0750      39              1026.6R         4/ 4
MASS BAY-STELLWA 0704   21 39  310/ 21/ 25 1026.2R         5/ 4
ISLE OF SHOALS   0700   18     310/ 19/ 22 1026.4R
S OF BLOCK IS    0755      40                N/A           7/ 6
$$

......................KEY.........................
  SKY/WX - SKY CONDITION/PRESENT WEATHER
  TMP    - TEMPERATURE IN FAHRENHEIT
  DWPT   - DEWPOINT IN FAHRENHEIT
  RH     - RELATIVE HUMIDITY IN PERCENT
  WIND   - DIRECTION AND SPEED IN MPH
  PRES   - MEAN SEA LEVEL PRESSURE IN INCHES OF HG
  WCI    - WIND CHILL INDEX
  VSB    - VISIBILITY IN MILES
  HX     - HEAT INDEX
  TC     - TEMPERATURE IN CELSIUS
  VRB    - VARIABLE WIND DIRECTION
  N/A    - NOT AVAILABLE




USA.gov is the U.S. government's official web portal to all federal, state and local government web resources and services.